Regional Weather Roundup
Issued by NWS Sioux Falls, SD

Home | Current Version | Previous Version | Text Only | Print | Product List | Glossary Off
Versions: 1 2 3 4 5 6 7 8 9 10 11 12 13 14 15 16 17 18 19 20 21 22 23 24 25 26 27 28 29 30 31 32 33 34 35 36 37 38 39 40 41 42 43 44 45 46 47 48 49 50

000
ASUS43 KFSD 191210
RWRFSD

WEATHER ROUNDUP FOR SE SOUTH DAKOTA/SW MINNESOTA/NW IOWA
NATIONAL WEATHER SERVICE SIOUX FALLS SD
600 AM CST SUN NOV 19 2017

NOTE: "FAIR" INDICATES FEW OR NO CLOUDS BELOW 12,000 FEET WITH NO
SIGNIFICANT WEATHER AND OR OBSTRUCTIONS TO VISIBILITY.


SDZ038>040-050-052>070-191300-
SOUTHEAST SOUTH DAKOTA

CITY           SKY/WX    TMP DP  RH WIND       PRES   REMARKS
BROOKINGS      CLOUDY    20  16  84 SW7       30.06F WCI  11
CHAMBERLAIN    CLOUDY    24  24  99 W5        30.07F WCI  18
6HR MIN TEMP:  19; 6HR MAX TEMP:  26;

HURON          CLOUDY    23  19  85 S8        30.06F WCI  14
6HR MIN TEMP:  20; 6HR MAX TEMP:  23;

MADISON        FAIR      23  19  86 SW12      30.07F WCI  12
MITCHELL       CLEAR     27  21  78 SW9       30.09F WCI  18
6HR MIN TEMP:  23; 6HR MAX TEMP:  27;

SIOUX FALLS    CLEAR     24  18  77 SW5       30.10F WCI  18
6HR MIN TEMP:  20; 6HR MAX TEMP:  24;

WINNER         FAIR      30  20  66 SW8       30.08F WCI  22
YANKTON        CLOUDY    19  17  92 SE3       30.13S
$$

MNZ071-072-080-081-089-090-097-098-191300-
SOUTHWEST MINNESOTA

CITY           SKY/WX    TMP DP  RH WIND       PRES   REMARKS
FAIRMONT       CLEAR     18  13  80 W8        30.11R WCI   8
JACKSON        CLEAR     19  14  79 CALM      30.10R
LUVERNE        CLEAR     18  12  79 CALM      30.12S
MARSHALL       CLEAR     23  17  78 SW8       30.06F WCI  14
6HR MIN TEMP:  17; 6HR MAX TEMP:  23;

MONTEVIDEO     PTCLDY    18  12  79 SW5       30.05F WCI  11
PIPESTONE      CLOUDY    14  10  85 SW5       30.07F WCI   6
REDWOOD FALLS  CLEAR     20  13  74 W7        30.08S WCI  11
WINDOM         CLEAR     18   7  62 SW3       30.09S
WORTHINGTON    CLEAR     19  14  81 SW8       30.10R WCI   9
$$

IAZ001>003-012>014-020>022-031-032-NEZ013-014-SDZ071-191300-
NORTHWEST IOWA

CITY           SKY/WX    TMP DP  RH WIND       PRES   REMARKS
CHEROKEE       CLEAR     20  18  92 SW3       30.15R
DENISON        CLEAR     21  18  86 CALM      30.18S
ESTHERVILLE    CLEAR     16  14  92 W7        30.10R WCI   6
LE MARS        CLEAR     19  16  86 S5        30.15S WCI  13
ORANGE CITY    CLEAR     19  19 100 W6        30.13R WCI  11
SHELDON        CLEAR     18  14  86 SW7       30.11S WCI   8
SIOUX CITY     CLEAR     21  17  84 CALM      30.17S
6HR MIN TEMP:  18; 6HR MAX TEMP:  26;

SPENCER        CLEAR     18  14  84 W8        30.13R WCI   8
6HR MIN TEMP:  14; 6HR MAX TEMP:  20;

STORM LAKE     CLEAR     19  18  93 W9        30.13S WCI   9
$$

ABBREVIATIONS USED IN REMARKS
   TC - TEMPERATURE IN CELSIUS
  WCI - WIND CHILL INDEX
   HX - HEAT INDEX
  VSB - VISIBILITY




USA.gov is the U.S. government's official web portal to all federal, state and local government web resources and services.